KD0RXN-4 Weather Reports


time (UTC)temp
C
wind
direction
speed
KPH
gust
KPH
rain 1hr
cm
rain 24hr
cm
rain mn
cm
humidity
%
barometer
mb
20260507041536 8 299 0.0 0.0 0.00 0.03 0.00 69 1016.4
20260507041021 8 299 0.0 0.0 0.00 0.03 0.00 68 1016.4
20260507040527 8 299 0.0 0.0 0.00 0.03 0.00 68 1016.3
20260507040033 8 299 0.0 0.0 0.00 0.03 0.00 67 1016.3
20260507035539 8 299 0.0 0.0 0.00 0.03 0.00 67 1016.4
20260507035024 8 299 0.0 0.0 0.00 0.03 0.00 66 1016.3
20260507034533 8 299 0.0 0.0 0.00 0.03 0.00 65 1016.3
20260507034039 9 299 0.0 0.0 0.00 0.03 0.00 65 1016.3
20260507033523 9 299 0.0 0.0 0.00 0.03 0.00 64 1016.2
20260507033028 9 299 0.0 0.0 0.00 0.03 0.00 64 1016.3
20260507032533 10 299 0.0 0.0 0.00 0.03 0.00 64 1016.3
20260507032019 10 300 0.0 0.0 0.00 0.03 0.00 62 1016.3
20260507031525 10 300 0.0 0.0 0.00 0.03 0.00 61 1016.3
20260507031030 10 300 0.0 0.0 0.00 0.03 0.00 59 1016.3
20260507030555 10 299 0.0 0.0 0.00 0.03 0.00 58 1016.2
20260507030039 10 299 0.0 0.0 0.00 0.03 0.00 58 1016.2
20260507025543 10 300 0.0 0.0 0.00 0.03 0.00 58 1016.2
20260507025026 10 300 0.0 0.0 0.00 0.03 0.00 57 1016.2
20260507024531 10 300 0.0 0.0 0.00 0.03 0.00 57 1016.2
20260507024020 10 54 0.0 0.0 0.00 0.03 0.00 56 1016.0
20260507023527 10 54 0.0 0.0 0.00 0.03 0.00 55 1016.0
20260507023052 11 54 0.0 0.0 0.00 0.03 0.00 55 1016.0
20260507022537 11 54 0.0 0.0 0.00 0.03 0.00 54 1015.9
20260507022022 11 54 0.0 0.0 0.00 0.03 0.00 54 1015.9
20260507021527 11 54 0.0 0.0 0.00 0.03 0.00 54 1015.8
20260507021032 11 54 0.0 0.0 0.00 0.03 0.00 53 1015.8
20260507020537 11 54 0.0 0.0 0.00 0.03 0.00 53 1015.6
20260507020021 11 55 0.0 0.0 0.00 0.03 0.00 51 1015.6
20260507015527 12 55 0.0 0.0 0.00 0.03 0.00 51 1015.5
20260507015032 12 55 0.0 0.0 0.00 0.03 0.00 50 1015.5
20260507014521 12 55 0.0 0.0 0.00 0.03 0.00 50 1015.5
20260507014046 12 55 0.0 0.0 0.00 0.03 0.00 49 1015.5
20260507013529 12 55 0.0 0.0 0.00 0.03 0.00 48 1015.5
20260507013034 13 55 0.0 0.0 0.00 0.03 0.00 47 1015.4
20260507012520 13 61 0.0 0.0 0.00 0.03 0.00 46 1015.4
20260507012026 13 61 0.0 0.0 0.00 0.03 0.00 46 1015.4
20260507011533 13 66 0.0 0.0 0.00 0.03 0.00 45 1015.4
20260507011019 13 11 0.0 0.0 0.00 0.03 0.00 44 1015.3
20260507010525 13 323 0.0 0.0 0.00 0.03 0.00 45 1015.2
20260507010052 14 323 0.0 0.0 0.00 0.03 0.00 44 1015.2
20260507005534 14 350 0.0 0.0 0.00 0.03 0.00 42 1015.0
20260507005023 14 28 0.0 0.0 0.00 0.03 0.00 43 1015.0
20260507004548 14 22 0.0 0.0 0.00 0.03 0.00 43 1014.9
20260507004033 14 27 0.0 1.6 0.00 0.03 0.00 44 1014.8
20260507003537 15 355 0.0 1.6 0.00 0.03 0.00 43 1014.7
20260507003041 15 17 0.0 1.6 0.00 0.03 0.00 43 1014.6
20260507002545 15 57 0.0 1.6 0.00 0.05 0.00 42 1014.5
20260507002049 15 53 0.0 0.0 0.00 0.05 0.00 42 1014.4
20260507001533 15 285 0.0 0.0 0.00 0.05 0.00 41 1014.3
20260507001057 15 348 0.0 1.6 0.00 0.05 0.00 41 1014.3
20260507000542 15 30 0.0 0.0 0.00 0.05 0.00 41 1014.2
20260507000045 15 275 0.0 0.0 0.00 0.05 0.00 42 1014.2
20260506235529 16 37 0.0 0.0 0.00 0.05 0.00 41 1014.1
20260506235034 16 291 0.0 0.0 0.00 0.05 0.00 40 1014.2
20260506234521 16 38 0.0 1.6 0.00 0.05 0.00 39 1014.1
20260506234026 16 69 0.0 1.6 0.00 0.05 0.00 39 1014.2
20260506233531 16 279 0.0 1.6 0.00 0.05 0.00 39 1014.2
20260506233020 16 39 0.0 1.6 0.00 0.05 0.00 37 1014.3
20260506232524 16 302 0.0 0.0 0.00 0.05 0.00 39 1014.2
20260506232029 16 85 0.0 0.0 0.00 0.05 0.00 39 1014.2
20260506231534 16 69 0.0 1.6 0.00 0.05 0.00 39 1014.2
20260506231020 16 5 0.0 1.6 0.00 0.05 0.00 40 1014.0
20260506230545 16 342 0.0 1.6 0.00 0.05 0.00 39 1014.1
20260506230029 16 19 0.0 1.6 0.00 0.05 0.00 40 1014.1
20260506225555 16 78 0.0 4.8 0.00 0.05 0.00 39 1014.3
20260506225059 16 313 0.0 4.8 0.00 0.05 0.00 38 1014.4
20260506224523 16 126 0.0 3.2 0.00 0.05 0.00 40 1014.3
20260506224028 17 49 0.0 3.2 0.00 0.05 0.00 37 1014.2
20260506223534 17 117 0.0 1.6 0.00 0.05 0.00 38 1014.2
20260506223059 17 34 0.0 3.2 0.00 0.05 0.00 38 1014.1
20260506222523 16 12 0.0 3.2 0.00 0.10 0.00 38 1014.3
20260506222031 16 58 0.0 3.2 0.00 0.10 0.00 38 1014.2
20260506221536 16 42 0.0 3.2 0.00 0.10 0.00 39 1014.2
20260506221021 16 70 0.0 4.8 0.00 0.10 0.00 39 1014.1
20260506220526 16 80 0.0 3.2 0.00 0.10 0.00 39 1014.1
20260506220051 16 61 0.0 3.2 0.00 0.10 0.00 37 1014.0
20260506215535 17 30 0.0 1.6 0.00 0.10 0.00 38 1014.0
20260506215021 17 26 0.0 1.6 0.00 0.10 0.00 37 1014.2
20260506214526 17 34 0.0 3.2 0.00 0.10 0.00 37 1014.2
20260506214051 17 23 0.0 3.2 0.00 0.10 0.00 39 1014.2
20260506213535 17 355 0.0 1.6 0.00 0.10 0.00 39 1014.2
20260506213041 17 42 0.0 3.2 0.00 0.10 0.00 39 1014.3
20260506212525 17 44 0.0 3.2 0.00 0.10 0.00 39 1014.2
20260506212030 17 113 0.0 3.2 0.00 0.10 0.00 38 1014.1
20260506211520 17 82 0.0 3.2 0.00 0.10 0.00 37 1014.2
20260506211044 17 50 0.0 1.6 0.00 0.10 0.00 39 1014.2
20260506210528 17 32 0.0 3.2 0.00 0.10 0.00 39 1014.4
20260506210054 17 305 0.0 4.8 0.00 0.10 0.00 37 1014.6
20260506205538 17 360 0.0 4.8 0.00 0.10 0.00 37 1014.5
20260506205043 17 332 0.0 6.4 0.00 0.10 0.00 39 1014.5
20260506204528 17 355 1.6 6.4 0.00 0.10 0.00 38 1014.5
20260506204033 17 39 1.6 4.8 0.00 0.10 0.00 37 1014.3
20260506203519 17 9 0.0 8.0 0.00 0.10 0.00 37 1014.6
20260506203024 17 46 0.0 8.0 0.00 0.10 0.00 38 1014.7
20260506202529 17 63 0.0 4.8 0.00 0.18 0.00 36 1014.8
20260506202033 17 71 0.0 8.0 0.00 0.18 0.00 36 1014.9
20260506201524 17 46 0.0 8.0 0.00 0.18 0.00 36 1014.7
20260506201029 18 55 0.0 1.6 0.00 0.18 0.00 36 1014.8
20260506200535 18 306 0.0 3.2 0.00 0.18 0.00 37 1015.0
20260506200019 18 46 0.0 3.2 0.00 0.18 0.00 36 1014.9
20260506195525 18 350 0.0 1.6 0.00 0.18 0.00 36 1015.1
20260506195030 17 329 0.0 1.6 0.00 0.18 0.00 39 1015.1
20260506194535 17 73 0.0 4.8 0.00 0.18 0.00 38 1015.1
20260506194020 17 34 0.0 4.8 0.00 0.18 0.00 37 1015.3
20260506193525 17 5 0.0 0.0 0.00 0.18 0.00 38 1015.2
20260506193031 17 113 0.0 4.8 0.00 0.18 0.00 42 1015.2
20260506192519 16 78 0.0 4.8 0.00 0.18 0.00 41 1015.4
20260506192024 16 69 0.0 4.8 0.00 0.18 0.00 44 1015.5
20260506191549 16 46 0.0 3.2 0.00 0.18 0.00 42 1015.5
20260506191033 16 105 0.0 3.2 0.00 0.18 0.00 41 1015.5
20260506190559 17 42 0.0 3.2 0.00 0.18 0.00 40 1015.6
20260506190023 18 74 0.0 3.2 0.00 0.18 0.00 38 1015.8
20260506185549 17 184 0.0 1.6 0.00 0.18 0.00 41 1015.8
20260506185033 17 279 0.0 1.6 0.00 0.18 0.00 39 1015.8
20260506184558 17 260 0.0 1.6 0.00 0.18 0.00 42 1016.0
20260506184021 17 360 0.0 1.6 0.00 0.18 0.00 41 1015.9
20260506183526 17 83 0.0 3.2 0.00 0.18 0.00 39 1015.9
20260506183031 17 313 0.0 3.2 0.00 0.18 0.00 41 1015.9
20260506182536 17 53 0.0 3.2 0.00 0.18 0.00 42 1015.9
20260506182042 16 274 0.0 3.2 0.00 0.18 0.00 42 1016.1
20260506181525 17 47 0.0 1.6 0.00 0.18 0.00 42 1016.1
20260506181035 16 19 0.0 1.6 0.00 0.18 0.00 44 1016.2
20260506180540 17 32 0.0 0.0 0.00 0.18 0.00 46 1016.1
20260506180024 17 188 0.0 0.0 0.00 0.18 0.00 46 1016.3
20260506175529 16 332 0.0 0.0 0.00 0.18 0.00 45 1016.2
20260506175035 16 283 0.0 6.4 0.00 0.18 0.00 45 1016.2
20260506174540 16 36 0.0 3.2 0.00 0.18 0.00 46 1016.3
20260506174025 16 66 0.0 3.2 0.00 0.18 0.00 44 1016.3
20260506173528 16 70 0.0 3.2 0.00 0.18 0.00 44 1016.3
20260506173052 16 287 0.0 3.2 0.00 0.18 0.00 45 1016.3
20260506172558 16 55 0.0 1.6 0.00 0.18 0.00 45 1016.3
20260506172021 16 108 0.0 4.8 0.00 0.18 0.00 44 1016.3
20260506171527 16 355 0.0 4.8 0.00 0.18 0.00 42 1016.4
20260506171030 16 31 0.0 1.6 0.00 0.18 0.00 44 1016.3
20260506170555 16 119 0.0 3.2 0.00 0.18 0.00 45 1016.2
20260506170038 16 355 0.0 3.2 0.00 0.18 0.00 45 1016.1
20260506165527 15 69 0.0 3.2 0.00 0.18 0.00 45 1016.0
20260506165028 15 32 0.0 3.2 0.00 0.18 0.00 46 1016.1
20260506164528 15 332 0.0 1.6 0.00 0.18 0.00 48 1015.8
20260506164033 14 76 0.0 12.9 0.00 0.18 0.00 50 1015.8
20260506163559 13 84 0.0 12.9 0.00 0.18 0.00 46 1015.8
20260506163045 14 61 0.0 11.3 0.00 0.18 0.00 46 1015.8
20260506162531 13 63 0.0 11.3 0.00 0.51 0.00 47 1015.8
20260506162034 13 360 0.0 3.2 0.00 0.51 0.00 49 1015.8
20260506161521 13 50 0.0 0.0 0.00 0.51 0.00 54 1015.6
20260506161026 13 65 0.0 1.6 0.00 0.51 0.00 53 1015.8
20260506160533 13 82 0.0 1.6 0.00 0.51 0.00 52 1015.8
20260506160019 13 61 0.0 1.6 0.00 0.51 0.00 51 1015.8
20260506155529 13 276 0.0 0.0 0.00 0.51 0.00 53 1015.6
20260506155034 13 90 0.0 1.6 0.00 0.51 0.00 54 1015.5
20260506154519 13 64 0.0 1.6 0.00 0.51 0.00 55 1015.5
20260506154023 12 82 0.0 1.6 0.00 0.51 0.00 58 1015.4
20260506153528 12 64 0.0 6.4 0.00 0.51 0.00 56 1015.3
20260506153055 12 46 0.0 6.4 0.00 0.51 0.00 55 1015.3
20260506152519 12 347 0.0 3.2 0.00 0.51 0.51 57 1015.2
20260506152022 12 53 0.0 3.2 0.00 0.51 0.51 57 1015.3
20260506151547 12 91 0.0 3.2 0.00 0.51 0.51 56 1015.2
20260506151052 12 30 0.0 1.6 0.00 0.51 0.51 58 1015.3
20260506150556 11 327 0.0 1.6 0.00 0.51 0.51 59 1015.2
20260506150039 11 66 0.0 0.0 0.00 0.51 0.51 59 1015.2
20260506145543 11 42 0.0 0.0 0.00 0.51 0.51 63 1015.3
20260506145024 11 58 0.0 1.6 0.00 0.51 0.51 61 1015.3
20260506144531 11 57 0.0 1.6 0.00 0.51 0.51 61 1015.3
20260506144037 11 64 0.0 1.6 0.00 0.51 0.51 63 1015.3
20260506143538 11 73 0.0 1.6 0.00 0.51 0.51 65 1015.3
20260506143024 10 32 0.0 1.6 0.00 0.51 0.51 65 1015.3
20260506142549 10 71 0.0 0.0 0.00 0.51 0.51 64 1015.3
20260506142031 10 71 0.0 0.0 0.00 0.51 0.51 66 1015.3
20260506141536 10 63 0.0 0.0 0.00 0.51 0.51 68 1015.3
20260506141036 10 80 0.0 0.0 0.00 0.51 0.51 71 1015.2
20260506140536 10 84 0.0 0.0 0.00 0.51 0.51 70 1015.2
20260506140042 10 78 0.0 0.0 0.00 0.51 0.51 73 1015.1
20260506135527 10 75 0.0 0.0 0.00 0.51 0.51 76 1015.1
20260506135033 9 67 0.0 0.0 0.00 0.51 0.51 77 1014.9
20260506134519 9 65 0.0 0.0 0.00 0.51 0.51 78 1014.8
20260506134029 8 77 0.0 0.0 0.00 0.51 0.51 80 1014.8
20260506133535 8 61 0.0 0.0 0.00 0.51 0.51 81 1014.9
20260506133021 8 59 0.0 0.0 0.00 0.51 0.51 83 1015.0
20260506132527 8 32 0.0 0.0 0.00 0.51 0.51 84 1015.0
20260506132051 8 50 0.0 0.0 0.00 0.51 0.51 84 1015.0
20260506131536 8 76 0.0 0.0 0.00 0.51 0.51 85 1015.1
20260506131022 7 72 0.0 0.0 0.00 0.51 0.51 86 1015.2
20260506130528 7 61 0.0 0.0 0.00 0.51 0.51 86 1015.1
20260506130033 7 85 0.0 0.0 0.00 0.51 0.51 87 1015.1
20260506125520 7 39 0.0 0.0 0.00 0.51 0.51 87 1014.9
20260506125026 7 65 0.0 0.0 0.00 0.51 0.51 87 1015.0
20260506124537 7 105 0.0 0.0 0.00 0.51 0.51 88 1015.1
20260506124023 7 13 0.0 0.0 0.00 0.51 0.51 88 1015.3
20260506123549 7 19 0.0 0.0 0.00 0.51 0.51 88 1015.2
20260506123033 7 5 0.0 0.0 0.00 0.51 0.51 88 1015.3
20260506122519 7 36 0.0 0.0 0.00 0.51 0.51 89 1015.4
20260506122025 7 355 0.0 0.0 0.00 0.51 0.51 89 1015.2
20260506121531 7 52 0.0 0.0 0.00 0.51 0.51 89 1015.1
20260506121036 7 20 0.0 0.0 0.00 0.51 0.51 90 1015.1
20260506120522 7 5 0.0 0.0 0.00 0.51 0.51 89 1015.1
20260506120028 7 63 0.0 0.0 0.00 0.51 0.51 90 1015.1
20260506115554 7 303 0.0 0.0 0.00 0.51 0.51 90 1015.2
20260506115023 7 244 0.0 0.0 0.00 0.51 0.51 90 1015.0
20260506114529 7 349 0.0 0.0 0.00 0.51 0.51 90 1015.0
20260506114036 7 325 0.0 0.0 0.00 0.51 0.51 90 1015.0
20260506113522 7 221 0.0 0.0 0.00 0.51 0.51 90 1014.9
20260506113029 7 325 0.0 0.0 0.00 0.51 0.51 90 1014.8
20260506112535 7 86 0.0 0.0 0.00 0.51 0.51 90 1014.7
20260506112021 7 275 0.0 0.0 0.00 0.51 0.51 90 1014.5
20260506111527 7 305 0.0 0.0 0.00 0.51 0.51 90 1014.2
20260506111033 7 52 0.0 0.0 0.00 0.51 0.51 90 1013.9
20260506110537 7 52 0.0 0.0 0.00 0.51 0.51 90 1013.7
20260506110026 7 46 0.0 0.0 0.00 0.51 0.51 90 1013.7
20260506105532 7 46 0.0 0.0 0.00 0.51 0.51 90 1013.8
20260506105019 7 50 0.0 0.0 0.00 0.51 0.51 90 1013.8
20260506104525 7 19 0.0 0.0 0.00 0.51 0.51 90 1013.7
20260506104031 7 19 0.0 0.0 0.00 0.51 0.51 90 1013.9
20260506103536 7 15 0.0 0.0 0.00 0.51 0.51 90 1013.9
20260506103023 7 11 0.0 0.0 0.00 0.51 0.51 91 1013.8
20260506102527 7 12 0.0 0.0 0.00 0.51 0.51 90 1013.5
20260506102034 7 342 0.0 0.0 0.00 0.51 0.51 90 1013.7
20260506101518 7 23 0.0 0.0 0.00 0.51 0.51 91 1013.5
20260506101022 7 28 0.0 0.0 0.00 0.51 0.51 91 1013.2
20260506100547 7 355 0.0 0.0 0.00 0.51 0.51 91 1013.6
20260506100035 7 17 0.0 0.0 0.00 0.51 0.51 91 1013.7
20260506095540 7 26 0.0 0.0 0.00 0.51 0.51 91 1013.2
20260506095022 7 15 0.0 0.0 0.00 0.51 0.51 91 1013.2
20260506094527 7 351 0.0 0.0 0.00 0.51 0.51 91 1013.1
20260506094032 7 55 0.0 0.0 0.00 0.51 0.51 91 1013.1
20260506093537 7 14 0.0 0.0 0.00 0.51 0.51 91 1013.2
20260506093042 7 12 0.0 0.0 0.00 0.51 0.51 91 1013.2
20260506092525 7 13 0.0 0.0 0.00 0.51 0.51 91 1013.1
20260506092029 7 325 0.0 0.0 0.00 0.51 0.51 91 1013.1
20260506091535 7 323 0.0 0.0 0.00 0.51 0.51 91 1013.1
20260506091020 7 234 0.0 0.0 0.00 0.51 0.51 91 1012.9
20260506090525 7 233 0.0 0.0 0.00 0.51 0.51 91 1012.7
20260506090032 6 45 0.0 0.0 0.00 0.51 0.51 90 1011.8
20260506085537 6 78 0.0 0.0 0.00 0.51 0.51 90 1011.2
20260506085021 7 74 0.0 0.0 0.00 0.51 0.51 90 1011.5
20260506084545 7 321 0.0 0.0 0.00 0.51 0.51 90 1011.9
20260506084030 7 99 0.0 0.0 0.00 0.51 0.51 90 1011.9
20260506083555 7 228 0.0 0.0 0.00 0.51 0.51 90 1012.5
20260506083019 6 71 0.0 0.0 0.00 0.51 0.51 90 1011.5
20260506082525 7 19 0.0 0.0 0.00 0.51 0.51 90 1011.0
20260506082030 7 35 0.0 0.0 0.00 0.51 0.51 90 1011.1
20260506081534 7 35 0.0 0.0 0.00 0.51 0.51 90 1011.0
20260506081019 7 35 0.0 0.0 0.00 0.51 0.51 90 1011.4
20260506080525 7 78 0.0 0.0 0.00 0.51 0.51 90 1011.1
20260506073021 7 53 0.0 0.0 0.00 0.51 0.51 90 1011.7
20260506072527 7 55 0.0 0.0 0.00 0.51 0.51 90 1011.8
20260506072033 7 59 0.0 0.0 0.00 0.51 0.51 90 1012.1
20260506071538 7 53 0.0 0.0 0.00 0.51 0.51 90 1012.2
20260506071023 7 29 0.0 0.0 0.00 0.51 0.51 90 1012.6
20260506070528 7 29 0.0 0.0 0.00 0.51 0.51 90 1012.6
20260506062037 7 19 0.0 0.0 0.00 0.51 0.51 89 1012.4
20260506061521 7 19 0.0 0.0 0.00 0.51 0.51 89 1012.6
20260506061048 7 72 0.0 0.0 0.00 0.51 0.51 89 1012.5
20260506060536 7 72 0.0 0.0 0.00 0.51 0.51 89 1012.6
20260506051026 7 64 0.0 0.0 0.00 0.51 0.51 89 1011.4
20260506050551 7 82 0.0 0.0 0.03 0.51 0.51 89 1011.3
20260506045048 7 49 0.0 0.0 0.03 0.51 0.51 89 1011.5
20260506044553 7 61 0.0 0.0 0.03 0.51 0.51 89 1011.3
20260506044056 7 25 0.0 0.0 0.03 0.51 0.51 89 1011.4
20260506043521 7 71 0.0 0.0 0.03 0.51 0.51 89 1011.2
20260506043026 7 55 0.0 0.0 0.03 0.51 0.51 88 1011.4
20260506042530 7 36 0.0 0.0 0.03 0.51 0.51 88 1011.4
20260506042036 7 68 0.0 0.0 0.03 0.51 0.51 88 1011.2